Weather in Talgar Şehri

Kazakhstan     43°18′10″N   77°14′22″E
В апреле 2022 года жителям России запретили посещать сайт meteo.paraplan.net по решению Генеральной прокуратуры. Аудитория сайта уменьшилась в 10 раз. Владельцы сайта не видят смысла в поддержке погодного сервера в таких условиях. Сайт будет закрыт в октябре.
temp.,
°C
wind,
m/s
gust,
m/s
humid.,
%
clouds,
%
prec.,
mm/h
press.,
hPa
HPBL,
m
25 september, sun
sun2500:00+12s43451 0.0 101629
03:00+12sse43410 0.0 101628
06:00+11sse43380 0.0 101627
09:00+16nw11260 0.0 1015931
12:00+19nnw43250 0.0 10141511
15:00+20nnw43240 0.0 10142094
18:00+17nne22320 0.0 101581
21:00+14sse43330 0.0 101835
26 september, mon
mon2600:00+13s43340 0.0 101830
03:00+13sse43310 0.0 101828
06:00+13sse43250 0.0 101828
09:00+18wnw21180 0.0 1017386
12:00+20nnw43200 0.0 10171330
15:00+21nnw43210 0.0 10151752
18:00+17nne12290 0.0 101659
21:00+14sse43340 0.0 101832
27 september, tue
tue2700:00+14s43334 0.0 101732
03:00+10wsw58391 0.0 1021233
06:00+8s2248100 0.0 102122
09:00+13nw223716 0.1 1021469
12:00+15nnw43410 0.1 10201116
15:00+16nnw43404 0.0 10181431
18:00+13n23485 0.0 1019453
21:00+9ssw115632 0.0 101912
28 september, wed
wed2800:00+8ssw1155100 0.0 101912
03:00+7ssw11517 0.0 101710
06:00+6s115440 0.0 101811
09:00+10nnw21411 0.0 1018348
12:00+13nnw423441 0.0 1017908
15:00+14nw4333100 0.0 10161356
18:00+11nnw2238100 0.0 101791
21:00+7sw1145100 0.0 101919
29 september, thu
thu2900:00+8ssw1147100 0.1 101845
03:00+7sw115299 0.1 101827
06:00+6sse115633 0.2 101911
09:00+9nnw21420 0.0 1018327
12:00+12n4235100 0.0 1016769
15:00+12n4235100 0.0 1015909
18:00+9n2243100 0.0 1017287
21:00+6ssw0150100 0.0 101812